• Join FlightAware (Why Join?)
  • Login
  • US Flag 
01:36AM EDT


 

Airport Tracker/Info


-or-


 

Live Flight TrackerFlight Track Log ✈ ASQ6127 ✈ 01-May-2013 ✈ KTYS - KIAD

Flight Track Log - Related Links

Times and Time Zones

All times are in EDT time to prevent confusion due to time zone crossing. See the ASQ6127 flight status page for this flight to view local times or setup timezone preferences in your user account.

Time Position Orientation Groundspeed Altitude Reporting Facility
EDT Latitude Longitude Course Direction KTS MPH feet Rate Location/Type
06:02AM 35.8664 -83.9336 27° Northeast 211 243 5,300  Level Atlanta Center
06:03AM 35.9142 -83.8900 36° Northeast 216 249 8,400 2,760 Climbing Atlanta Center
06:04AM 35.9706 -83.8567 26° Northeast 216 249 10,900 1,860 Climbing Atlanta Center
06:05AM 36.0436 -83.8103 27° Northeast 245 282 12,200 1,560 Climbing Atlanta Center
06:06AM 36.2553 -83.6520 28° Northeast  Level FlightAware Approximate
06:06AM 36.1267 -83.7586 27° Northeast 290 334 14,100  Level Atlanta Center
06:07AM 36.3497 -83.5908 27° Northeast  Level FlightAware Approximate
06:07AM 36.2142 -83.7017 28° Northeast 323 372 16,100  Level Atlanta Center
06:08AM 36.4444 -83.5299 27° Northeast  Level FlightAware Approximate
06:09AM 36.3908 -83.5883 27° Northeast 358 412 19,800  Level Indianapolis Center
06:10AM 36.4817 -83.5294 28° Northeast 365 420 21,800 1,980 Climbing Indianapolis Center
06:11AM 36.5772 -83.4692 27° Northeast 378 435 23,800 1,920 Climbing Indianapolis Center
06:12AM 36.6706 -83.4092 27° Northeast 375 432 25,700 1,800 Climbing Indianapolis Center
06:13AM 36.7358 -83.3086 51° Northeast 376 433 27,500 1,680 Climbing Indianapolis Center
06:14AM 36.7917 -83.1956 58° Northeast 380 437 29,100 1,500 Climbing Indianapolis Center
06:15AM 36.8481 -83.0808 58° Northeast 386 444 30,600 720 Climbing Indianapolis Center
06:16AM 36.9081 -82.9631 57° Northeast 411 473 30,600 -840 Level Indianapolis Center
06:17AM 36.9819 -82.8078 59° Northeast 469 540 29,000 -840 Descending Indianapolis Center
06:18AM 37.0483 -82.6703 59° Northeast 463 533 29,000  Level Indianapolis Center
06:19AM 37.1142 -82.5353 59° Northeast 455 524 29,000  Level Indianapolis Center
06:20AM 37.1794 -82.4011 59° Northeast 452 520 29,000  Level Indianapolis Center
06:21AM 37.2442 -82.2669 59° Northeast 450 518 29,000  Level Indianapolis Center
06:22AM 37.3067 -82.1333 60° Northeast 444 511 29,000  Level Indianapolis Center
06:23AM 37.3719 -81.9997 58° Northeast 446 513 29,000  Level Indianapolis Center
06:24AM 37.4356 -81.8667 59° Northeast 444 511 29,000  Level Indianapolis Center
06:25AM 37.4978 -81.7333 60° Northeast 442 509 29,000  Level Indianapolis Center
06:26AM 37.5600 -81.6014 59° Northeast 439 505 29,000  Level Indianapolis Center
06:27AM 37.6239 -81.4656 59° Northeast 440 506 29,000  Level Indianapolis Center
06:28AM 37.6833 -81.3358 60° Northeast 439 505 29,000  Level Indianapolis Center
06:29AM 37.7064 -81.2856 60° Northeast 433 498 29,000  Level Washington Center
06:30AM 37.7689 -81.1508 60° Northeast 428 493 29,000  Level Washington Center
06:31AM 37.8192 -81.0128 65° Northeast 428 493 29,000  Level Washington Center
06:32AM 37.8761 -80.8589 65° Northeast 434 499 29,000  Level Washington Center
06:33AM 37.9239 -80.7175 67° East 434 499 29,000  Level Washington Center
06:34AM 37.9939 -80.5931 54° Northeast 434 499 29,000  Level Washington Center
06:35AM 38.0719 -80.4692 51° Northeast 429 494 29,000  Level Washington Center
06:36AM 38.1369 -80.3572 54° Northeast 434 499 29,000 -420 Level Washington Center
06:37AM 38.2125 -80.2378 51° Northeast 434 499 28,200 -1,020 Descending Washington Center
06:38AM 38.2842 -80.1125 54° Northeast 434 499 27,000 -1,260 Descending Washington Center
06:39AM 38.3517 -79.9817 57° Northeast 434 499 25,700 -1,320 Descending Washington Center
06:40AM 38.4211 -79.8478 56° Northeast 439 505 24,500 -900 Descending Washington Center
06:41AM 38.4664 -79.6861 70° East 439 505 24,000 -300 Descending Washington Center
06:42AM 38.5003 -79.5419 73° East 434 499 24,000  Level Washington Center
06:43AM 38.5319 -79.4003 74° East 423 487 24,000 -120 Level Washington Center
06:44AM 38.5550 -79.2636 78° East 409 471 23,800 -1,080 Descending Washington Center
06:45AM 38.5756 -79.1317 79° East 414 476 21,900 -1,920 Descending Washington Center
06:46AM 38.5983 -78.9947 78° East 408 470 20,000 -1,980 Descending Washington Center
06:47AM 38.6233 -78.8522 77° East 393 452 18,000 -1,920 Descending Washington Center
06:48AM 38.6494 -78.7311 75° East 377 434 16,200 -2,040 Descending Washington Center
06:49AM 38.6753 -78.6153 74° East 354 407 14,000 -2,220 Descending Washington Center
06:50AM 38.7011 -78.5019 74° East 332 382 11,800 -1,500 Descending Washington Center
06:51AM 38.7242 -78.4044 73° East 310 357 11,000 -1,020 Descending Washington Center
06:52AM 38.7678 -78.3261 54° Northeast 282 325 9,800 -1,020 Descending Washington Center
06:53AM 38.8172 -78.2561 48° Northeast 264 304 9,000 -660 Descending Washington Center
06:54AM 38.8625 -78.1831 51° Northeast 264 304 8,500 -960 Descending Washington Center
06:55AM 38.8833 -78.0931 73° East 259 298 7,200 -1,020 Descending Washington Center
06:56AM 38.9058 -78.0031 72° East 259 298 6,500 -600 Descending Washington Center
06:57AM 38.9264 -77.9183 73° East 253 291 6,000 -300 Descending Washington Center
06:58AM 38.9489 -77.8336 71° East 248 285 6,000  Level Washington Center
06:59AM 38.9647 -77.7594 75° East 241 277 6,000  Level Washington Center
07:00AM 38.9333 -77.6167 106° East 244 281 6,000  Level Potomac TRACON
07:01AM 38.8833 -77.5833 153° Southeast 228 262 6,000  Level Potomac TRACON
07:02AM 38.8167 -77.5667 169° South 235 270 6,000 -480 Level Potomac TRACON
07:03AM 38.7667 -77.5833 195° South 217 250 5,100 -540 Descending Potomac TRACON
07:04AM 38.7333 -77.5500 142° Southeast 217 250 5,000 -600 Descending Potomac TRACON
07:05AM 38.7667 -77.5000 49° Northeast 196 226 4,000 -1,260 Descending Potomac TRACON
07:06AM 38.8167 -77.4833 15° North 195 224 2,600 -1,200 Descending Potomac TRACON
07:07AM 38.8667 -77.4667 15° North 175 201 1,800 -840 Descending Potomac TRACON